Theta_e
288 291 292 290 291 292 289 290 286 290 293 296 299 301 303 305 305 305 306 308 309 309 309 308 309 312 314 315 315 315 317 318 319 320 321 321 321 322 323 325 326 326 325 325
284 291 292 291 291 292 292 292 291 291 291 299 301 304 305 306 306 306 307 309 310 310 310 309 310 312 314 314 314 315 315 318 319 320 321 322 322 321 320 323 325 326 325 325
279 286 288 286 291 291 292 294 293 290 295 298 300 303 304 305 308 308 309 310 310 311 311 311 311 313 313 314 314 315 314 318 320 320 321 322 322 318 319 318 321 323 323 324
279 285 279 290 296 296 293 294 295 295 296 300 302 305 306 309 309 309 310 311 312 312 312 312 312 313 314 313 315 315 314 317 319 320 320 321 320 318 316 315 317 319 321 321
279 282 287 291 294 293 290 292 296 296 299 300 303 304 305 309 312 311 311 312 313 314 312 312 312 313 314 312 314 315 314 315 319 319 319 319 319 316 314 314 314 316 318 320
283 282 280 289 296 300 298 287 297 299 300 299 302 299 303 308 311 311 312 313 313 313 311 311 313 313 313 312 313 314 315 316 318 318 319 319 318 314 314 314 314 315 314 316
282 280 286 295 297 299 287 287 296 298 300 302 300 304 310 309 312 313 312 312 313 313 311 311 313 314 312 312 313 315 317 316 317 318 319 319 317 316 314 314 313 313 312 312
284 281 282 298 296 289 293 296 298 299 299 301 304 307 306 309 312 312 310 311 313 312 311 311 314 315 313 311 315 315 316 316 315 316 320 318 318 316 314 313 311 311 311 310
289 290 296 298 297 298 297 297 298 298 300 301 307 305 305 307 310 312 312 312 313 313 310 311 313 315 313 313 313 315 315 315 314 315 317 318 317 316 314 312 311 310 311 311
291 295 296 297 301 299 299 299 300 300 302 306 308 306 304 306 309 311 312 312 313 312 309 310 312 315 315 313 314 314 313 313 312 313 313 317 318 318 316 313 312 311 310 311
291 295 296 298 298 299 300 301 300 301 302 309 310 303 304 305 309 311 312 312 313 312 311 311 313 314 315 313 313 313 313 312 312 313 314 315 318 317 318 318 315 314 314 312
288 294 294 295 299 301 300 299 300 300 301 304 310 310 306 306 309 312 312 312 313 313 312 312 313 314 314 313 313 313 311 310 310 312 313 315 316 313 297 304 302 300 301 311
295 299 299 299 301 302 300 300 301 301 303 302 308 311 311 306 309 311 313 313 313 313 313 313 314 314 315 314 314 313 311 311 310 310 313 314 315 315 314 308 299 298 297 299
298 299 297 299 297 301 303 302 303 303 304 305 307 311 312 310 311 312 312 314 315 315 314 314 314 314 316 315 314 313 313 303 310 311 312 314 315 316 316 315 315 315 300 301
296 297 296 298 300 301 303 302 301 301 303 304 308 310 313 312 312 313 314 315 315 314 314 314 314 314 316 316 315 313 313 311 312 311 313 312 315 316 316 316 316 316 308 299
296 296 296 296 299 301 302 301 300 300 302 303 307 310 315 314 315 315 315 315 314 314 314 314 314 315 317 317 316 314 314 305 307 312 311 313 314 315 315 314 314 315 313 314
293 292 294 295 297 299 299 300 301 301 303 303 306 309 314 316 315 315 316 316 317 316 316 316 315 316 317 318 317 316 315 310 303 312 312 313 313 314 314 314 314 314 314 312
298 297 296 296 295 296 298 300 302 302 302 304 307 309 311 311 312 314 315 317 316 316 317 317 317 317 318 317 317 316 316 312 312 313 313 313 313 314 314 314 314 314 314 310
300 298 298 298 298 298 299 300 302 304 304 306 307 308 311 312 315 316 316 317 316 316 317 318 303 311 317 314 313 317 316 314 313 314 314 306 309 314 314 314 314 314 314 311
303 301 300 300 300 300 300 302 303 304 305 306 307 311 310 311 313 315 316 316 317 317 319 318 314 317 317 311 303 317 316 315 314 314 314 313 313 314 314 305 314 314 314 313
303 303 301 300 300 301 302 303 304 304 305 305 305 310 309 311 314 316 314 314 316 309 314 307 317 319 318 309 309 317 316 315 315 315 314 313 313 314 314 314 313 314 314 313
303 302 301 300 300 301 302 304 305 305 304 304 306 312 308 308 311 314 314 312 315 291 311 312 308 293 309 298 317 317 317 316 315 315 315 315 315 313 314 314 313 313 314 314
301 302 302 302 301 302 304 305 306 304 304 304 307 309 307 309 310 310 311 312 311 298 314 312 294 292 291 311 318 317 318 318 316 316 316 315 315 315 315 315 315 314 314 313
301 301 300 303 302 301 301 303 306 305 307 305 305 308 309 308 309 310 308 297 293 298 304 299 297 293 295 316 317 317 318 318 317 316 316 303 316 315 315 315 313 315 314 307
301 300 301 300 301 302 303 304 304 306 308 308 307 310 311 311 309 311 312 309 293 305 310 295 293 295 315 317 317 317 315 315 316 316 316 315 314 313 313 313 314 313 312 311
300 301 301 301 302 305 305 305 303 304 304 305 307 307 309 312 312 311 313 302 311 302 312 311 312 315 313 313 314 314 313 310 309 310 310 311 310 309 309 308 307 307 307 306
301 298 301 301 302 303 303 302 303 303 303 303 304 308 310 310 309 307 301 310 311 311 310 309 307 303 309 309 309 310 310 309 302 308 307 306 305 305 303 303 303 302 301 301
Wind_Speed
11 13 9 1 18 20 20 13 7 5 14 7 10 11 9 7 9 10 11 12 13 12 10 8 8 7 6 6 7 6 6 6 5 5 4 4 4 4 4 4 4 5 8 6
6 12 8 11 6 20 24 20 14 6 9 9 7 7 6 12 12 12 13 13 13 12 12 11 12 11 8 8 8 7 6 6 5 5 5 4 4 3 4 4 5 6 7 9
5 10 8 9 21 11 10 15 15 16 15 5 4 7 9 9 15 16 15 14 16 16 15 13 13 12 10 9 7 8 7 5 6 5 5 4 4 5 5 4 4 6 5 5
5 4 6 7 9 13 11 8 17 12 7 10 10 12 10 11 17 14 13 14 13 12 12 12 10 11 8 7 9 9 7 7 6 5 6 5 4 5 5 3 4 4 6 5
2 3 6 1 8 6 4 11 6 8 14 7 9 5 5 10 11 20 19 17 16 15 14 11 13 12 11 8 8 9 9 8 7 7 6 7 6 5 3 5 3 3 3 6
2 3 6 2 17 12 8 6 11 13 11 9 8 7 8 13 10 10 9 11 14 14 11 14 13 14 13 11 10 11 10 10 8 7 8 8 8 6 3 3 4 5 5 3
6 4 5 11 19 12 8 6 17 12 12 14 10 10 17 13 12 14 15 16 12 14 16 15 13 15 14 12 13 12 10 9 8 7 8 7 7 4 5 5 5 5 6 4
3 4 4 15 8 10 7 9 12 13 13 14 17 16 6 12 16 13 14 13 15 14 14 13 16 16 15 15 13 9 10 10 9 8 6 6 8 5 5 7 6 5 5 4
3 3 3 4 3 5 4 11 13 16 17 14 16 14 9 11 11 14 16 16 16 15 14 12 16 16 16 13 13 12 11 10 9 9 7 8 7 7 5 5 5 5 4 4
3 6 14 17 8 6 13 13 17 15 17 15 15 15 11 8 10 12 13 15 15 15 15 15 15 16 15 15 15 14 13 10 8 10 7 7 5 6 6 6 4 5 5 4
4 5 15 2 11 14 20 18 20 21 18 14 12 12 9 7 9 12 14 13 15 17 16 17 16 15 12 16 16 14 13 10 10 8 10 8 7 6 7 6 8 7 5 6
2 3 8 13 14 19 16 18 21 20 23 20 11 11 6 8 8 12 13 12 13 13 12 14 16 15 14 17 17 16 12 9 9 8 8 7 7 4 7 3 11 9 11 9
4 7 11 15 16 12 17 19 19 18 18 17 15 9 6 5 7 8 12 16 16 18 17 16 17 16 15 17 17 16 15 13 9 9 9 9 8 7 7 2 5 9 9 10
8 7 11 10 12 17 17 19 18 16 16 14 12 11 7 4 5 9 11 17 15 14 15 16 17 17 17 18 17 16 13 16 12 10 10 9 9 9 8 8 8 5 6 9
7 7 9 14 16 15 15 14 18 15 16 17 14 10 9 8 3 7 7 6 8 9 10 15 16 14 16 18 18 16 13 11 11 10 9 10 9 8 8 8 8 5 3 2
13 12 13 13 13 16 16 15 15 16 15 15 15 15 11 7 7 5 5 12 13 14 14 14 14 15 17 17 16 13 13 16 13 10 9 9 8 9 8 8 8 8 7 9
13 14 9 9 11 13 15 13 13 14 14 14 14 13 11 9 7 8 6 1 8 9 14 16 16 14 17 17 18 12 11 10 12 10 10 11 10 10 9 9 9 9 10 9
16 17 14 14 12 13 18 14 13 13 12 10 12 9 9 10 8 7 7 5 5 5 10 12 12 13 14 17 15 11 11 12 12 11 10 10 10 10 10 10 10 10 9 7
15 19 17 15 14 14 16 14 14 13 13 10 10 8 6 5 6 7 7 5 4 6 4 7 12 15 13 13 15 11 11 12 12 10 10 10 8 9 10 10 10 10 9 8
10 13 15 14 14 13 14 15 14 14 14 7 7 8 6 6 7 8 5 4 5 3 5 4 12 13 13 12 12 11 12 13 13 11 10 10 11 11 10 10 10 10 10 9
14 9 11 13 11 12 14 14 12 15 14 7 6 8 3 4 6 4 6 3 3 8 4 0 4 7 9 11 10 8 11 11 12 12 11 12 11 11 11 10 11 10 10 10
16 12 5 5 7 11 11 12 12 15 13 7 7 6 5 3 3 3 2 2 4 5 1 3 3 6 0 13 12 8 10 11 10 9 9 10 10 10 11 10 10 10 10 10
13 13 11 9 6 8 9 11 15 12 11 8 8 7 3 1 3 2 1 3 5 3 3 3 3 9 7 2 9 8 9 10 10 10 10 10 10 10 10 10 10 9 9 10
12 13 10 10 7 7 7 8 10 7 7 7 8 7 5 3 3 3 1 2 7 4 6 5 4 7 9 2 2 5 7 8 7 7 7 9 8 8 8 8 7 7 7 6
11 11 13 13 10 7 10 11 11 8 6 7 7 4 6 4 3 2 3 1 2 5 5 5 7 12 10 4 3 2 3 4 6 7 7 7 7 7 6 7 7 7 6 5
11 10 10 13 12 8 6 5 6 6 7 7 7 5 3 2 3 4 3 4 2 7 4 3 2 4 5 9 4 4 2 4 4 4 5 5 5 5 4 4 4 4 4 4
9 9 8 10 11 11 6 4 4 5 4 5 7 9 5 3 3 3 2 5 3 3 5 4 6 6 8 5 7 8 8 3 3 6 6 5 5 5 5 4 4 5 5 5
Wind_Direction
279 271 298 38 203 207 212 211 171 207 207 218 224 221 207 158 132 142 159 173 176 175 173 168 163 174 183 174 165 162 167 158 174 148 141 149 115 106 94 89 82 97 111 104
299 282 279 272 255 216 209 216 233 226 246 211 256 96 164 166 161 170 182 185 178 176 171 175 176 181 183 174 171 158 172 171 163 149 141 158 133 114 106 86 86 93 110 118
291 336 315 258 237 230 231 215 197 209 223 172 207 204 199 184 176 182 183 180 182 183 180 180 179 175 183 179 154 167 168 167 165 158 144 151 135 110 100 89 101 100 99 115
265 325 202 256 190 204 207 225 228 241 176 195 215 222 200 200 181 181 179 185 183 180 179 182 168 171 162 148 165 169 169 169 163 163 145 146 128 113 109 97 98 94 101 97
233 257 282 304 45 9 166 241 195 218 236 245 231 84 269 201 212 185 183 184 186 177 174 164 163 162 164 155 164 166 180 173 174 162 152 149 148 144 116 115 106 98 100 104
295 239 214 56 315 311 268 223 16 348 333 279 141 185 233 187 192 180 171 172 166 167 156 165 166 158 162 174 167 180 182 182 171 164 159 161 155 155 126 120 115 114 101 96
226 283 284 335 322 307 135 294 326 331 312 310 229 198 217 171 190 188 175 166 150 159 168 173 159 160 169 173 188 188 174 169 160 165 165 159 150 146 134 127 113 106 105 95
187 252 285 352 1 59 283 301 310 313 306 290 279 251 190 183 186 170 155 150 161 164 171 166 163 166 170 184 185 158 158 166 167 160 165 151 153 137 134 135 127 125 117 104
253 293 344 352 240 242 274 309 313 319 308 293 280 269 245 186 181 178 170 170 168 167 161 167 170 175 178 181 160 156 159 167 169 159 158 157 152 150 138 141 142 146 146 135
264 15 336 311 316 307 331 319 319 321 317 297 282 250 229 230 175 170 170 168 164 155 164 170 179 182 182 161 163 162 168 169 161 165 155 157 154 163 157 160 154 154 157 163
271 331 321 319 345 328 327 322 330 329 329 319 310 252 219 205 183 174 173 162 167 172 176 181 174 176 165 162 160 166 167 165 168 170 170 166 171 173 178 187 177 170 184 170
310 301 273 283 313 319 321 325 325 326 330 329 337 315 249 200 207 170 169 164 169 175 168 167 170 172 164 165 165 161 162 165 172 167 174 172 169 147 55 170 189 196 167 165
273 221 255 287 303 321 324 323 320 317 321 321 327 322 309 234 178 193 175 169 170 178 176 164 168 172 169 168 165 168 169 167 165 167 173 172 177 180 186 77 163 191 195 192
331 311 294 294 306 319 308 321 315 309 324 334 330 326 327 295 157 149 183 183 181 171 168 166 168 176 175 170 171 170 170 164 166 173 177 178 182 186 189 189 194 188 213 199
316 320 275 287 291 313 309 322 322 320 327 342 342 338 349 6 7 170 145 146 136 147 163 167 171 177 174 172 172 170 165 170 173 173 177 178 178 182 190 190 196 186 139 172
281 282 279 285 293 299 305 314 316 317 325 328 341 347 346 349 346 14 165 148 151 174 171 174 184 174 172 173 172 171 177 168 166 169 166 171 176 181 183 189 190 193 195 205
279 277 275 279 281 283 291 300 303 303 311 326 334 327 344 353 354 4 6 302 177 177 176 172 180 169 172 174 173 174 172 165 166 166 174 179 182 190 192 193 197 199 206 191
243 250 254 250 258 275 281 288 292 297 298 307 313 321 352 0 344 330 330 304 138 159 182 173 153 160 179 172 173 169 171 166 173 177 175 179 187 186 190 195 202 205 209 192
241 241 235 240 243 253 266 277 282 293 288 291 309 317 323 349 352 343 323 8 116 164 223 165 155 154 168 185 169 165 166 167 177 181 183 176 173 186 192 197 201 205 206 191
298 239 238 241 243 246 267 271 276 281 274 268 280 276 327 343 348 2 354 26 15 343 308 202 167 171 164 153 186 170 167 171 176 181 180 182 185 188 195 201 203 205 204 201
333 305 244 239 234 245 249 261 266 278 271 237 249 263 237 288 300 8 15 2 24 335 2 29 203 174 152 148 171 188 170 171 176 180 182 188 188 194 192 196 201 205 208 208
349 348 303 248 239 251 251 258 261 264 260 244 237 251 268 318 315 268 163 301 289 287 187 77 30 54 317 143 179 182 188 173 179 175 181 185 186 194 198 191 201 208 211 209
357 3 5 356 285 252 267 262 256 239 238 222 227 229 261 242 276 258 15 310 277 263 112 95 93 78 62 179 182 178 202 180 179 182 183 185 187 194 200 198 200 202 208 210
354 4 1 343 339 341 346 321 321 266 250 235 214 202 173 205 247 271 211 209 270 50 34 37 28 44 66 55 28 210 191 177 175 179 180 186 191 190 189 193 196 202 211 203
346 339 3 2 352 338 328 325 319 314 330 308 283 194 192 203 171 263 291 122 333 351 65 34 53 52 48 309 287 259 262 190 178 178 176 179 181 186 181 182 194 185 183 196
343 352 353 2 353 343 326 313 309 326 334 325 310 296 293 257 217 172 146 317 203 147 119 81 321 135 113 50 283 333 272 219 168 131 135 152 145 144 143 142 145 160 163 168
351 351 355 360 2 347 341 346 350 338 336 320 297 296 305 306 249 255 206 144 288 305 130 113 91 51 63 58 51 19 311 301 69 116 104 109 108 101 102 108 118 129 130 137